Helicity
74 66 62 59 50 32 8 -25 -66 -164 -172 -154 -77 -135 -62 -34 -57 -117 -209 5 131 55 28 135 184 67 369 379 336 632 84 148 180 217 230 230 205 173
82 64 56 54 50 53 44 29 8 -27 -77 -90 -98 -26 -75 -70 -12 -26 -135 -194 -81 -22 154 75 54 77 118 254 288 284 435 133 172 206 233 230 231 204
101 90 71 62 52 39 35 30 27 16 11 -42 -58 -87 11 -39 -111 -41 -92 -170 -253 -42 53 -38 -60 -49 -2 170 231 316 265 290 148 180 196 231 221 224
105 91 75 59 45 49 55 42 36 24 4 -21 -48 -66 -96 24 -12 -139 -61 -99 -164 -230 -30 10 -58 -29 -27 -38 196 317 359 338 373 160 151 212 239 233
98 89 80 66 58 62 60 61 58 49 43 29 5 -24 -47 -32 42 -6 -141 -104 -106 -132 -256 -12 -2 -131 -69 -132 -81 -3 164 245 327 330 132 174 254 263
84 78 79 75 70 76 77 68 79 73 65 59 48 16 -18 -49 -22 37 -16 -118 -116 -94 -96 -188 37 -23 -301 -310 -184 -144 -26 140 345 385 177 175 249 305
82 75 75 60 21 35 94 98 80 84 85 71 76 67 33 5 -15 24 40 -38 -110 -70 -53 -192 -327 -61 -81 -173 -343 -255 -169 -40 215 563 650 165 233 290
78 74 79 62 69 44 43 49 54 69 69 79 74 62 46 44 34 21 36 36 -14 5 -47 -17 -105 -160 -41 -61 -123 -169 -158 -131 -13 262 451 469 195 250
76 76 80 99 78 103 71 51 47 28 27 54 65 67 56 74 68 56 41 64 59 11 -64 -81 -74 -136 -122 -82 -36 -159 -223 -177 -139 171 327 493 360 250
83 86 90 89 98 84 90 86 89 104 113 124 130 135 145 107 112 104 82 95 111 95 46 -35 -56 -74 -140 -147 -31 -109 -48 -60 -295 -2 144 261 495 465
90 94 99 96 55 40 77 83 94 96 53 14 11 12 6 -0 18 69 77 59 36 14 -13 -37 -67 -102 -150 -146 -87 58 -27 -45 -363 -443 -101 187 424 491
96 93 50 71 44 34 64 76 60 49 54 64 89 82 80 113 53 75 103 111 115 41 25 -7 -50 -90 -100 -93 -108 -120 -169 -10 208 -81 -90 -17 336 410
125 125 108 47 46 40 29 50 47 25 26 36 11 6 16 28 70 92 118 127 110 96 55 34 -27 -62 -59 -108 -115 -37 -36 -113 -16 -83 -131 -165 110 256
109 88 81 35 20 12 18 14 18 13 -2 -22 -2 7 25 48 67 88 92 115 152 133 78 79 61 4 -47 -83 -111 -132 -93 -140 -96 -98 -224 -370 90 213
96 68 15 12 20 18 49 22 26 1 19 12 10 22 44 51 52 72 89 95 103 109 96 79 102 61 41 -28 -48 -100 -122 -115 -87 -68 -191 -565 -292 193
86 102 60 15 34 37 22 6 6 19 27 31 33 43 51 57 66 81 77 86 92 104 105 97 96 80 40 20 -32 -50 -86 -122 -100 -49 -249 -330 -363 -284
50 40 44 89 6 -19 -9 -9 -0 19 43 64 71 69 69 72 70 94 97 87 110 120 92 105 99 84 74 39 -18 -33 -62 -107 -67 -33 -69 -222 -343 -443
40 63 15 -49 -28 -23 -31 -18 2 7 45 46 59 68 54 60 74 86 103 125 131 133 112 113 98 67 54 43 16 -3 -28 -83 -73 -28 -35 -106 -361 -311
-0 -88 -84 -37 -27 -30 -27 -15 -3 36 43 64 60 93 117 131 111 145 157 150 144 149 164 152 141 120 61 24 44 -12 -3 -47 -115 -80 -58 -75 -182 -236
-65 -47 -40 -29 -28 -28 -20 -14 -3 28 89 123 133 154 171 188 183 188 186 181 181 149 119 139 156 163 164 111 26 3 -29 -43 -114 -135 -62 -54 -105 -52
-2 -30 -28 -30 -25 -25 -31 -21 69 127 102 109 149 183 195 206 216 232 235 141 141 206 144 168 205 79 133 97 40 18 56 -8 -22 -81 -63 -58 -50 -67
-9 -20 -9 -24 -16 -29 -36 8 87 108 114 141 192 220 241 250 274 295 311 307 293 281 81 31 167 195 181 208 114 44 28 31 -38 -66 6 3 -1 14
3 6 16 38 39 30 79 103 190 120 200 230 272 296 304 317 338 349 350 349 345 332 306 313 313 269 252 250 88 51 11 28 -8 -54 -33 39 37 86
Wind_Speed
86 86 87 88 89 91 94 99 112 131 129 110 109 98 103 105 105 108 108 110 117 110 105 106 105 105 106 103 92 90 79 71 73 76 69 63 60 58
87 88 89 91 92 93 97 101 105 118 137 118 117 116 111 110 110 111 113 113 110 111 116 110 108 107 108 107 110 103 96 91 77 76 76 73 66 63
86 90 92 90 94 95 97 101 107 110 131 128 118 116 121 117 114 112 112 113 114 113 114 114 112 112 111 111 113 111 111 103 100 84 81 80 75 68
89 89 92 90 94 95 97 103 106 108 118 137 124 121 120 117 118 118 116 113 115 115 117 118 114 108 104 104 104 107 105 108 116 105 90 86 84 79
84 86 89 89 96 95 97 102 104 106 109 121 131 119 118 114 121 117 115 115 114 116 116 115 119 118 117 117 116 116 112 107 115 123 97 93 87 84
80 83 87 89 93 96 98 101 103 107 109 114 123 123 118 113 113 123 125 112 118 111 118 118 122 120 116 107 108 107 106 114 107 111 113 103 99 91
81 82 85 86 91 94 95 97 101 103 107 113 119 118 115 112 116 115 122 121 118 114 117 114 110 108 112 115 116 114 113 115 116 116 107 113 110 101
86 83 84 91 94 97 96 97 100 104 104 105 109 115 118 109 110 114 120 127 140 114 129 135 121 129 123 122 127 128 125 121 117 118 115 110 118 109
86 89 91 87 91 93 97 95 95 96 96 101 106 107 111 105 104 109 110 117 125 121 117 136 122 137 127 125 124 126 129 129 129 123 124 122 117 113
84 87 89 93 89 90 91 92 92 89 88 89 93 101 101 104 100 104 110 115 119 117 108 133 122 131 122 120 122 121 123 125 127 123 122 121 125 119
84 83 86 89 88 86 88 90 93 93 89 99 103 108 111 114 113 106 105 104 115 117 102 110 117 120 115 122 120 128 133 126 124 122 122 127 122 117
84 84 83 85 90 92 89 89 96 99 98 102 101 100 102 106 112 104 104 110 112 123 111 114 121 118 138 127 126 115 102 104 111 105 110 110 109 107
85 86 81 86 91 95 97 93 97 104 106 104 97 95 99 99 97 91 93 100 111 120 115 105 114 115 121 129 123 126 131 123 118 120 124 123 113 102
87 86 84 92 95 97 100 103 104 105 98 102 103 105 106 104 99 93 94 92 91 109 113 104 112 114 119 128 134 122 125 121 118 119 119 121 125 120
75 81 98 99 100 97 97 95 99 96 97 102 104 104 100 99 99 96 94 95 98 99 101 104 106 115 116 130 133 128 128 126 122 121 121 120 120 119
77 81 89 95 94 89 90 89 87 88 90 95 100 101 99 98 97 92 97 94 96 102 94 96 101 110 122 124 128 134 131 135 124 119 108 104 101 101
87 84 86 76 84 87 87 86 87 88 89 88 90 95 95 95 96 90 90 93 92 99 105 93 89 98 109 118 128 129 132 136 134 132 126 130 121 117
86 79 81 85 85 85 87 89 89 91 90 90 93 95 99 100 100 95 88 85 90 95 104 98 95 100 105 114 117 128 129 135 133 130 128 133 129 117
75 84 86 84 84 86 88 90 93 92 92 94 96 95 91 88 82 87 80 81 93 96 96 95 95 98 113 127 115 109 126 127 129 130 131 136 136 126
81 81 81 81 83 87 90 92 95 96 92 86 86 83 82 77 76 73 74 73 79 103 112 104 94 95 106 126 123 114 105 117 120 130 137 135 129 120
78 76 76 78 82 86 88 92 92 84 93 97 96 92 91 88 82 78 78 72 69 80 116 113 105 102 106 108 124 129 119 118 122 130 131 136 136 124
75 73 73 76 80 81 80 92 96 99 103 102 96 91 91 92 90 87 84 80 77 72 84 123 113 100 92 99 130 129 123 110 114 130 142 142 132 134
71 71 73 77 81 89 94 95 64 47 52 64 83 89 94 95 90 88 88 88 87 85 84 93 98 98 92 85 125 123 123 119 117 123 133 142 145 147
Wind_Direction
303 303 302 302 301 300 298 295 293 290 289 291 291 292 293 291 289 288 286 285 283 283 282 281 279 278 276 273 280 275 258 243 243 246 244 240 240 242
301 300 301 301 301 300 298 296 293 290 287 291 290 290 291 289 289 287 284 283 282 281 280 278 277 277 274 272 270 272 272 261 244 240 242 242 238 237
299 299 299 301 300 300 298 296 294 292 289 290 291 291 290 289 287 287 285 282 280 279 278 277 276 275 273 272 269 269 267 267 259 243 239 241 239 234
297 298 298 300 299 300 299 297 295 293 291 289 291 290 288 290 288 285 284 282 280 278 277 275 275 274 272 271 271 268 270 266 262 258 244 238 239 239
297 297 298 299 298 299 299 298 297 295 293 290 289 290 289 290 288 286 283 281 280 278 275 274 273 272 271 269 269 267 265 269 268 260 246 242 237 237
297 297 299 299 299 300 299 298 297 295 294 292 290 289 289 289 287 286 283 282 279 278 276 273 273 270 269 268 268 268 266 266 270 264 252 246 242 237
298 299 299 300 300 299 299 299 298 296 294 291 289 289 288 288 286 287 284 282 278 278 275 273 269 269 268 268 267 266 267 267 265 264 267 249 245 240
297 300 301 301 301 300 299 298 297 295 293 292 290 288 287 289 288 286 285 282 276 276 275 271 271 268 268 267 267 265 265 264 265 261 261 267 247 241
298 299 300 302 302 302 300 299 297 295 293 292 290 289 289 289 290 287 285 283 280 279 276 270 271 266 267 267 266 265 263 262 262 261 260 261 263 244
299 300 301 301 303 302 300 298 296 295 295 294 292 290 290 289 289 287 286 283 282 279 278 271 271 267 267 265 265 263 261 261 261 258 258 259 261 258
300 301 302 301 302 302 299 297 296 294 295 292 290 288 286 284 285 288 285 284 281 279 280 273 271 269 265 264 264 265 261 261 258 256 257 260 260 256
301 302 303 302 301 299 298 297 294 292 293 292 291 291 291 288 285 286 286 283 282 279 278 275 273 271 267 265 263 259 255 258 259 257 255 258 260 261
302 303 304 302 300 296 292 293 291 287 287 290 293 294 294 293 292 292 288 284 282 278 277 280 275 271 267 264 261 258 256 259 260 256 256 256 257 259
302 303 303 298 295 290 288 285 283 285 290 291 291 291 291 292 292 293 290 289 286 280 279 279 274 271 267 265 260 259 256 255 256 255 256 256 255 255
305 303 293 290 287 286 287 285 285 290 291 290 290 291 294 294 295 294 293 291 288 285 283 279 276 272 268 263 262 259 256 254 254 253 256 254 254 251
304 302 295 285 284 290 290 292 292 295 296 295 294 295 296 296 296 296 293 292 289 286 286 283 278 273 268 265 262 259 255 251 252 250 252 253 253 250
298 299 292 297 293 292 291 290 293 296 299 302 302 301 300 300 297 299 296 293 291 288 284 286 283 278 271 267 261 258 256 252 249 248 250 249 252 252
294 295 292 292 290 288 288 288 291 293 300 302 301 301 297 296 296 297 299 297 294 290 284 284 284 280 274 268 262 259 256 252 250 249 250 248 248 248
297 290 286 285 283 284 287 288 287 296 301 301 300 304 307 307 308 304 304 300 294 291 289 287 283 279 272 265 266 262 258 255 252 250 248 245 245 247
289 284 278 278 280 283 286 286 288 294 305 311 312 312 311 309 308 306 304 301 299 290 281 282 282 279 274 266 267 265 263 259 252 247 244 244 246 249
283 275 275 276 279 282 281 284 302 311 309 308 308 309 308 307 306 304 302 297 293 294 281 279 280 279 277 274 266 261 263 259 255 248 246 243 242 244
278 272 273 276 280 280 277 289 302 303 303 306 311 311 309 306 305 303 300 297 294 287 255 263 278 280 277 271 263 262 261 262 256 250 245 242 240 239
275 274 276 282 285 294 304 305 321 288 308 314 315 313 310 307 305 302 299 295 291 287 284 285 282 278 274 270 263 262 260 258 254 249 244 242 242 240